| time (UTC) | temp C | wind direction | speed KPH | gust KPH | rain 1hr cm | rain 24hr cm | rain mn cm | humidity % | barometer mb |
| 20260503051526 | 4 | 234 | 3.2 | 11.3 | 0.00 | 0.00 | 0.00 | 75 | 1012.4 |
| 20260503050023 | 4 | 264 | 4.8 | 11.3 | 0.00 | 0.00 | 0.00 | 75 | 1012.5 |
| 20260503044548 | 4 | 238 | 4.8 | 14.5 | 0.00 | 0.00 | 0.00 | 75 | 1012.5 |
| 20260503043017 | 4 | 253 | 4.8 | 11.3 | 0.00 | 0.00 | 0.00 | 74 | 1012.7 |
| 20260503041517 | 5 | 254 | 6.4 | 11.3 | 0.00 | 0.00 | 0.00 | 73 | 1012.7 |
| 20260503040016 | 5 | 269 | 4.8 | 12.9 | 0.00 | 0.00 | 0.00 | 72 | 1012.8 |
| 20260503034512 | 5 | 231 | 4.8 | 11.3 | 0.00 | 0.00 | 0.00 | 69 | 1012.7 |
| 20260503033013 | 5 | 234 | 4.8 | 8.0 | 0.00 | 0.00 | 0.00 | 66 | 1012.8 |
| 20260503031510 | 5 | 314 | 6.4 | 16.1 | 0.00 | 0.00 | 0.00 | 64 | 1012.9 |
| 20260503030011 | 5 | 269 | 4.8 | 14.5 | 0.00 | 0.00 | 0.00 | 65 | 1012.9 |
| 20260503024508 | 5 | 259 | 4.8 | 11.3 | 0.00 | 0.03 | 0.00 | 63 | 1013.0 |
| 20260503023007 | 5 | 264 | 6.4 | 14.5 | 0.00 | 0.03 | 0.00 | 65 | 1013.2 |
| 20260503021515 | 5 | 260 | 4.8 | 11.3 | 0.00 | 0.03 | 0.00 | 68 | 1013.3 |
| 20260503020004 | 5 | 232 | 4.8 | 11.3 | 0.00 | 0.03 | 0.00 | 69 | 1013.3 |
| 20260503014501 | 5 | 256 | 4.8 | 11.3 | 0.00 | 0.03 | 0.00 | 71 | 1013.2 |
| 20260503013001 | 5 | 213 | 4.8 | 9.7 | 0.00 | 0.03 | 0.00 | 71 | 1013.2 |
| 20260503011501 | 5 | 253 | 8.0 | 12.9 | 0.00 | 0.03 | 0.00 | 71 | 1013.2 |
| 20260503010100 | 5 | 230 | 6.4 | 12.9 | 0.00 | 0.03 | 0.00 | 71 | 1013.1 |
| 20260503004605 | 5 | 238 | 3.2 | 8.0 | 0.00 | 0.03 | 0.00 | 71 | 1013.0 |
| 20260503003103 | 5 | 247 | 1.6 | 12.9 | 0.00 | 0.03 | 0.00 | 71 | 1012.9 |
| 20260503001558 | 5 | 257 | 6.4 | 14.5 | 0.00 | 0.03 | 0.00 | 71 | 1012.8 |
| 20260503000104 | 5 | 234 | 8.0 | 14.5 | 0.00 | 0.03 | 0.00 | 71 | 1012.7 |
| 20260502234610 | 6 | 246 | 4.8 | 14.5 | 0.00 | 0.03 | 0.00 | 70 | 1012.6 |
| 20260502233054 | 6 | 240 | 8.0 | 17.7 | 0.00 | 0.03 | 0.00 | 70 | 1012.7 |
| 20260502231553 | 6 | 243 | 6.4 | 17.7 | 0.00 | 0.03 | 0.00 | 70 | 1012.5 |
| 20260502230053 | 6 | 250 | 6.4 | 12.9 | 0.00 | 0.03 | 0.00 | 70 | 1012.6 |
| 20260502224552 | 6 | 251 | 9.7 | 16.1 | 0.00 | 0.03 | 0.00 | 70 | 1012.6 |
| 20260502223100 | 5 | 234 | 9.7 | 16.1 | 0.00 | 0.03 | 0.00 | 69 | 1012.6 |
| 20260502221554 | 5 | 250 | 11.3 | 19.3 | 0.00 | 0.03 | 0.00 | 70 | 1012.6 |
| 20260502221548 | 5 | 252 | 11.3 | 19.3 | 0.00 | 0.03 | 0.00 | 70 | 1012.6 |
| 20260502220056 | 5 | 240 | 6.4 | 19.3 | 0.00 | 0.03 | 0.00 | 69 | 1012.6 |
| 20260502214608 | 6 | 234 | 6.4 | 24.1 | 0.00 | 0.03 | 0.00 | 66 | 1012.6 |
| 20260502213103 | 7 | 239 | 9.7 | 24.1 | 0.00 | 0.03 | 0.00 | 59 | 1012.4 |
| 20260502211547 | 7 | 278 | 11.3 | 17.7 | 0.00 | 0.03 | 0.00 | 55 | 1012.4 |
| 20260502210041 | 7 | 296 | 11.3 | 19.3 | 0.00 | 0.03 | 0.00 | 54 | 1012.3 |
| 20260502204542 | 7 | 269 | 11.3 | 19.3 | 0.00 | 0.05 | 0.00 | 57 | 1012.3 |
| 20260502203104 | 7 | 296 | 9.7 | 19.3 | 0.00 | 0.05 | 0.00 | 58 | 1012.4 |
| 20260502201542 | 7 | 269 | 9.7 | 20.9 | 0.00 | 0.05 | 0.00 | 60 | 1012.4 |
| 20260502200044 | 6 | 316 | 12.9 | 27.4 | 0.00 | 0.05 | 0.00 | 62 | 1012.5 |
| 20260502194536 | 7 | 272 | 16.1 | 29.0 | 0.00 | 0.13 | 0.00 | 61 | 1012.5 |
| 20260502193008 | 7 | 321 | 12.9 | 20.9 | 0.00 | 0.13 | 0.00 | 62 | 1012.6 |
| 20260502191506 | 7 | 288 | 11.3 | 20.9 | 0.00 | 0.13 | 0.00 | 64 | 1012.7 |
| 20260502190004 | 6 | 262 | 12.9 | 27.4 | 0.00 | 0.13 | 0.00 | 64 | 1012.7 |
| 20260502184502 | 7 | 311 | 14.5 | 22.5 | 0.00 | 0.15 | 0.00 | 61 | 1012.6 |
| 20260502183002 | 7 | 342 | 14.5 | 24.1 | 0.00 | 0.15 | 0.00 | 60 | 1012.6 |
| 20260502181502 | 7 | 327 | 16.1 | 27.4 | 0.00 | 0.15 | 0.00 | 61 | 1012.6 |
| 20260502163108 | 7 | 317 | 11.3 | 25.7 | 0.00 | 0.18 | 0.00 | 54 | 1012.5 |
| 20260502161613 | 7 | 269 | 17.7 | 32.2 | 0.00 | 0.18 | 0.00 | 53 | 1012.5 |
| 20260502151541 | 6 | 298 | 16.1 | 32.2 | 0.00 | 0.18 | 0.00 | 53 | 1012.9 |
| 20260502123002 | 3 | 229 | 8.0 | 14.5 | 0.00 | 0.18 | 0.00 | 81 | 1013.3 |
| 20260502121600 | 3 | 256 | 8.0 | 16.1 | 0.00 | 0.18 | 0.00 | 82 | 1013.3 |
| 20260502120108 | 3 | 219 | 8.0 | 19.3 | 0.00 | 0.18 | 0.00 | 85 | 1013.3 |
| 20260502114547 | 2 | 252 | 9.7 | 17.7 | 0.00 | 0.18 | 0.00 | 87 | 1013.4 |
| 20260502113048 | 2 | 263 | 8.0 | 16.1 | 0.00 | 0.18 | 0.00 | 88 | 1013.4 |
| 20260502111543 | 2 | 234 | 6.4 | 19.3 | 0.00 | 0.18 | 0.00 | 88 | 1013.3 |
| 20260502110031 | 1 | 235 | 8.0 | 19.3 | 0.00 | 0.18 | 0.00 | 89 | 1013.2 |
| 20260502104529 | 1 | 232 | 4.8 | 8.0 | 0.00 | 0.18 | 0.00 | 89 | 1013.0 |
| 20260502103023 | 1 | 228 | 4.8 | 11.3 | 0.00 | 0.18 | 0.00 | 90 | 1012.9 |
| 20260502101520 | 1 | 243 | 4.8 | 11.3 | 0.00 | 0.18 | 0.00 | 89 | 1012.8 |
| 20260502091510 | 1 | 247 | 1.6 | 8.0 | 0.00 | 0.18 | 0.00 | 87 | 1012.4 |
| 20260502070104 | 3 | 258 | 9.7 | 16.1 | 0.00 | 0.18 | 0.00 | 81 | 1011.5 |
| 20260502064550 | 3 | 292 | 8.0 | 16.1 | 0.00 | 0.18 | 0.00 | 81 | 1011.7 |
| 20260502063042 | 3 | 256 | 9.7 | 17.7 | 0.00 | 0.18 | 0.00 | 81 | 1011.7 |
| 20260502061540 | 4 | 302 | 6.4 | 25.7 | 0.00 | 0.18 | 0.00 | 82 | 1011.8 |
| 20260502060037 | 4 | 336 | 12.9 | 17.7 | 0.00 | 0.18 | 0.00 | 84 | 1011.8 |
| 20260502054535 | 5 | 313 | 12.9 | 20.9 | 0.00 | 0.18 | 0.00 | 86 | 1011.6 |
| 20260502053032 | 5 | 254 | 4.8 | 11.3 | 0.00 | 0.18 | 0.00 | 89 | 1011.3 |